Millinocket, ME

2:28 PM EST on February 26, 2017 (GMT -0500)
Millinocket Municipal

Weather History for KMLT - February, 2012

Change the Weather History Date:

Monday, February 13, 2012

  Actual Average Record
Temperature  
Mean Temperature 4 °F 18 °F  
Max Temperature 16 °F 28 °F 47 °F (1913)
Min Temperature -8 °F 8 °F -23 °F (1911)
Degree Days  
Heating Degree Days 61 47  
Month to date heating degree days 623 638  
Since 1 July heating degree days 4632 5384  
Cooling Degree Days 0 0  
Month to date cooling degree days 0 0  
Year to date cooling degree days 0 0  
Moisture  
Dew Point -5 °F    
Average Humidity 62    
Maximum Humidity 83    
Minimum Humidity 40    
Precipitation  
Precipitation T in 0.08 in 1.65 in (2008)
Month to date precipitation 0.37 0.81  
Year to date precipitation 2.96 3.74  
Sea Level Pressure  
Sea Level Pressure 29.76 in    
Wind  
Wind Speed 6 mph (WNW)    
Max Wind Speed 24 mph    
Max Gust Speed 33 mph    
Visibility 7 miles    
Events Snow    
T = Trace of Precipitation, MM = Missing Value Source: NWS Daily Summary

Daily Weather History Graph

Daily Weather History Graph

Search for Another Location

Airport or City:

Trip Planner

Search our weather history database for the weather conditions in past years. The results will help you decide how hot, cold, wet, or windy it might be!

Date:

Astronomy

Feb. 13, 2012 Rise Set
Actual Time 6:40 AM EST 4:57 PM EST
Civil Twilight 6:09 AM EST 5:28 PM EST
Nautical Twilight 5:35 AM EST 6:03 PM EST
Astronomical Twilight 5:00 AM EST 6:38 PM EST
Moon No Moon Rise 9:13 AM EST (2/13)
Length of Visible Light 11h 18m
Length of Day
10h 17m
Waning Gibbous, 62% of the Moon is Illuminated
Feb 13
Waning Gibbous
Feb 14
Last Quarter
Feb 21
New
Feb 29
First Quarter
Mar 8
Full

Hourly Weather History & Observations

Time (EST) Temp. Windchill Dew Point Humidity Pressure Visibility Wind Dir Wind Speed Gust Speed Precip Events Conditions
12:53 AM -4.0 °F - -11.9 °F 69% 29.72 in 10.0 mi Calm Calm - N/A   Clear
1:53 AM -5.1 °F - -11.0 °F 76% 29.73 in 10.0 mi Calm Calm - N/A   Clear
2:53 AM -6.0 °F - -11.0 °F 79% 29.72 in 10.0 mi Calm Calm - N/A   Mostly Cloudy
3:53 AM -7.1 °F - -11.9 °F 79% 29.72 in 10.0 mi Calm Calm - N/A   Overcast
4:22 AM -4.0 °F - -9.4 °F 78% 29.66 in 4.0 mi Calm Calm - N/A   Haze
4:53 AM -2.9 °F - -8.0 °F 79% 29.71 in 3.0 mi Calm Calm - 0.00 in Snow Light Snow
5:01 AM -2.2 °F - -7.6 °F 78% 29.66 in 2.0 mi Calm Calm - 0.00 in Snow Light Snow
5:14 AM -2.2 °F - -7.6 °F 78% 29.66 in 4.0 mi Calm Calm - 0.00 in   Haze
5:24 AM -2.2 °F - -7.6 °F 78% 29.65 in 5.0 mi Calm Calm - 0.00 in   Haze
5:40 AM -2.2 °F - -7.6 °F 78% 29.65 in 6.0 mi Calm Calm - 0.00 in   Haze
5:53 AM -2.0 °F - -7.1 °F 79% 29.70 in 5.0 mi Calm Calm - 0.00 in   Haze
6:03 AM -2.2 °F -10.4 °F -7.6 °F 78% 29.65 in 6.0 mi SE 3.5 mph - N/A   Haze
6:53 AM -2.9 °F - -7.1 °F 82% 29.71 in 10.0 mi Calm Calm - N/A   Overcast
7:41 AM -0.4 °F -10.4 °F -5.8 °F 78% 29.67 in 2.0 mi SE 4.6 mph - 0.00 in Snow Light Snow
7:53 AM -0.0 °F -7.9 °F -5.1 °F 79% 29.72 in 3.0 mi ESE 3.5 mph - 0.00 in   Haze
8:36 AM 1.4 °F -6.2 °F -2.2 °F 85% 29.68 in 3.0 mi ESE 3.5 mph - N/A   Haze
8:53 AM 3.0 °F - -0.9 °F 84% 29.73 in 1.5 mi Calm Calm - 0.00 in Snow Light Snow
9:06 AM 5.0 °F - -0.4 °F 78% 29.68 in 3.0 mi Calm Calm - N/A   Haze
9:53 AM 9.0 °F 2.4 °F 1.0 °F 70% 29.74 in 6.0 mi WNW 3.5 mph - N/A   Haze
10:07 AM 8.6 °F 0.1 °F 1.4 °F 73% 29.70 in 2.5 mi NNW 4.6 mph - 0.00 in Snow Light Snow
10:25 AM 8.6 °F -1.3 °F 1.4 °F 73% 29.71 in 3.0 mi NW 5.8 mph - 0.00 in Snow Light Snow
10:37 AM 10.4 °F -3.3 °F 1.4 °F 67% 29.71 in 6.0 mi WNW 10.4 mph 16.1 mph 0.00 in   Haze
10:53 AM 10.9 °F -4.1 °F 1.0 °F 64% 29.75 in 7.0 mi NW 12.7 mph - 0.00 in   Overcast
11:53 AM 12.9 °F -3.9 °F -2.9 °F 49% 29.75 in 10.0 mi WNW 17.3 mph 25.3 mph 0.00 in   Mostly Cloudy
12:53 PM 14.0 °F -2.5 °F -2.9 °F 47% 29.76 in 4.0 mi WNW 17.3 mph 33.4 mph 0.00 in Snow Blowing Snow
1:53 PM 15.1 °F 1.1 °F -4.0 °F 43% 29.76 in 10.0 mi WNW 12.7 mph 29.9 mph 0.00 in   Clear
2:53 PM 16.0 °F 1.1 °F -5.1 °F 39% 29.78 in 10.0 mi West 15.0 mph 26.5 mph N/A   Clear
3:53 PM 15.1 °F 1.8 °F -6.0 °F 39% 29.81 in 10.0 mi West 11.5 mph 20.7 mph N/A   Clear
4:53 PM 14.0 °F -2.5 °F -5.1 °F 43% 29.83 in 10.0 mi NW 17.3 mph 23.0 mph N/A   Clear
5:53 PM 12.0 °F 2.7 °F -4.0 °F 49% 29.86 in 10.0 mi WNW 5.8 mph - N/A   Clear
6:53 PM 12.0 °F 1.5 °F -2.0 °F 53% 29.89 in 10.0 mi WNW 6.9 mph - N/A   Clear
7:53 PM 10.9 °F 1.4 °F -2.0 °F 56% 29.91 in 10.0 mi WNW 5.8 mph - N/A   Clear
8:53 PM 5.0 °F - -2.9 °F 70% 29.94 in 10.0 mi Calm Calm - N/A   Clear
9:53 PM 8.1 °F -3.2 °F -4.0 °F 58% 29.95 in 10.0 mi WNW 6.9 mph - N/A   Clear
10:53 PM 10.0 °F -2.9 °F -5.1 °F 51% 29.96 in 10.0 mi West 9.2 mph 17.3 mph N/A   Scattered Clouds
11:53 PM 9.0 °F 2.4 °F -4.0 °F 56% 29.99 in 10.0 mi WSW 3.5 mph - N/A   Scattered Clouds